Regional Weather Roundup
Issued by NWS

Home | Current Version | Previous Version | Graphics & Text | Print | Product List | Glossary On
Versions: 1 2 3 4 5 6 7 8 9 10 11 12 13 14 15 16 17 18 19 20 21 22 23 24 25 26 27 28 29 30 31 32 33 34 35 36 37 38 39 40 41 42 43 44 45 46 47 48 49 50
000
ASUS45 KBOI 271310
RWRID

IDAHO REGIONAL WEATHER ROUNDUP
NATIONAL WEATHER SERVICE BOISE ID
700 AM MDT WED MAY 27 2015

NOTE: "FAIR" INDICATES FEW OR NO CLOUDS BELOW 12000 FEET
WITH NO SIGNIFICANT WEATHER AND/OR OBSTRUCTIONS TO VISIBILITY

IDZ012-014-271400-
SOUTHWEST IDAHO


CITY           SKY/WX    TMP DP  RH WIND       PRES   REMARKS
BOISE          MOCLDY    55  50  83 SE7       29.99F
CALDWELL       MOCLDY    54  43  66 W3        30.00S
MOUNTAIN HOME  CLEAR     53  45  76 N12       29.98R
$$

IDZ016-017-271400-
SOUTHCENTRAL IDAHO


CITY           SKY/WX    TMP DP  RH WIND       PRES   REMARKS
BURLEY         MOCLDY    52  46  80 NE3       30.01R
JEROME         CLEAR     51  43  74 SE3       30.02R
TWIN FALLS     CLEAR     52  42  69 S12       29.99R
$$

IDZ019>023-271400-
SOUTHEAST IDAHO


CITY           SKY/WX    TMP DP  RH WIND       PRES   REMARKS
IDAHO FALLS    PTSUNNY   45  44  97 CALM      30.07R
POCATELLO      PTCLDY    47  47 100 CALM      30.06R
REXBURG        MOSUNNY   46  44  93 NE3       30.07S
$$

IDZ006-010-011-018-031-032-271400-
CENTRAL IDAHO MOUNTAINS


CITY           SKY/WX    TMP DP  RH WIND       PRES   REMARKS
MCCALL         PTCLDY    43  39  86 CALM      30.03R
HAILEY         PTCLDY    45  41  87 W9        30.07S
STANLEY          N/A     40  37  89 CALM      30.11R
SALMON         CLOUDY    48  45  87 S5        30.04R
CHALLIS        CLOUDY    47  42  83 CALM      30.06R
$$

IDZ002-004-006-007-026-271400-
NORTHERN IDAHO


CITY           SKY/WX    TMP DP  RH WIND       PRES   REMARKS
LEWISTON       PTCLDY    52  49  89 CALM      30.01R
LOWELL           N/A     49  46  90 CALM      30.05R
COEUR D`ALENE  PTCLDY    45  41  87 NE7       30.02R
MULLAN PASS    PTCLDY    44  39  82 CALM      30.06R
$$


USA.gov is the U.S. government's official web portal to all federal, state and local government web resources and services.